Zurück zum Katalog

USA 3

AktivMilitärPO
NORAD 15071·PAYLOAD·🇺🇸 United States

Gestartet Jun 25, 1984 von Vandenberg Space Force Base

Loading…

Nächste Überflüge (nächste 24 Stunden)

TLE

AktuellSource: Space-Track

Epoche: Sep 14, 2026, 00:33 UTC

1 15071U 84065C   26257.02307294  .00003527  00000-0  19209-3 0  9997
2 15071  95.8702 106.0089 0004870  35.3408 324.8150 15.14832622128562

Verfolge USA 3 in Echtzeit mit AllMySat

Download on the App Store